Flag for U.S.A. Weather past 2 weeks in Woodstock, New York, U.S.A.

Now
27 °F

Overcast.


Feels Like: 27 °F
Forecast: 17 / 31 °F
Wind: No wind

Location: Dutchess County Airport

Current Time: Mar 2, 2015 at 7:11:10 AM

Latest Report: Mar 2, 2015 at 5:53 AM


Visibility: 8 mi

Pressure: 30.01 "Hg

Humidity: 81%

Dew point: 22 °F

Location of WoodstockLocation

Historic Weather in Woodstock — Graph

°F

Woodstock temperature yesterday

Maximum temperature yesterday: 26 °F (at 12:53 PM)
Minimum temperature yesterday: 2 °F (at 1:53 AM)
Average temperature yesterday: 17 °F

Past Weeks' High & Low Weather Summary

 TemperatureHumidityPressure
High41 °F (Feb 22, 3:53 PM)92% (Feb 21, 10:53 PM)30.82 "Hg (Feb 21, 10:53 PM)
Low-11 °F (Feb 16, 7:53 AM)20% (Feb 16, 2:53 PM)29.58 "Hg (Feb 15, 5:53 AM)
Average16 °F56%30.15 "Hg
* Reported Feb 15 5:53 AM — Mar 2 5:53 AM, Woodstock, Weather by CustomWeather, © 2015

Note: Actual official high and low records may vary slightly from our data, if they occured in-between our weather recording intervals... More about our weather records

Advertising

Woodstock weather history for previous 24 hours

 ConditionsComfort  
Time TempWeatherWind HumidityBarometerVisibility
5:53 AM
Mon, Mar 2
27 °FOvercast.No wind81%30.01 "Hg8 mi
4:53 AM27 °FOvercast.5 mph81%30.01 "Hg9 mi
3:53 AM27 °FOvercast.5 mph78%30.02 "Hg9 mi
2:53 AM26 °FOvercast.8 mph77%30.05 "Hg9 mi
1:53 AM25 °FOvercast.3 mph85%30.06 "Hg8 mi
12:53 AM25 °FOvercast.No wind85%30.09 "Hg8 mi
11:53 PM
Sun, Mar 1
25 °FIce fog.No wind85%30.14 "Hg6 mi
10:53 PM25 °FLight snow. Ice fog.No wind85%30.18 "Hg3 mi
9:53 PM25 °FLight snow. Ice fog.No wind85%30.21 "Hg2 mi
8:53 PM25 °FLight snow. Ice fog.No wind85%30.24 "Hg1 mi
7:53 PM25 °FLight snow. Ice fog.No wind85%30.28 "Hg1 mi
6:53 PM25 °FLight snow. Ice fog.3 mph85%30.30 "Hg1 mi
5:53 PM25 °FLight snow. Ice fog.3 mph85%30.32 "Hg1 mi
4:53 PM25 °FSnow. Ice fog.3 mph81%30.35 "Hg1 mi
3:53 PM25 °FSnow. Ice fog.3 mph81%30.40 "Hg1 mi
2:53 PM25 °FLight snow. Mostly cloudy.8 mph78%30.43 "Hg1 mi
1:53 PM25 °FLight snow. Mostly cloudy.5 mph75%30.48 "Hg2 mi
12:53 PM26 °FOvercast.9 mph66%30.52 "Hg8 mi
11:53 AM22 °FLight snow. Ice fog.3 mph85%30.57 "Hg1 mi
11:04 AM20 °FSnow. Mostly cloudy.No wind82%30.59 "Hg1 mi
9:53 AM16 °FSnow. Ice fog.No wind80%30.62 "Hg1 mi
9:02 AM14 °FLight snow. Overcast.No wind73%30.64 "Hg1 mi
8:53 AM14 °FLight snow. Mostly cloudy.3 mph67%30.63 "Hg1 mi
7:53 AM12 °FOvercast.No wind67%30.64 "Hg8 mi
Weather by CustomWeather, © 2015

See weather overviewHow to use our weather pages